EAG5510 SBBR-SBGR

Flight info

Callsign EAG5510
Flight time 1h 12m
Altitude 32000
Route ENRUR UZ38 VUNOX
Aircraft B738/M-SDE2E3FGHIRWXY/LB1

Departure

Time 2026-05-04 20:36
Airport Presidente Juscelino Kubitschek International Airport (SBBR)

Arrival

Time 2026-05-04 21:49
Airport São Paulo/Guarulhos–Governor André Franco Montoro International Airport (SBGR)
Time Latitude Longitude Altitude Speed Heading
2026-05-04 20:11 -15.87266 -47.91845 3476 ft 0 kts 357°
2026-05-04 20:22 -15.87269 -47.91845 3476 ft 3 kts 356°
2026-05-04 20:22 -15.87293 -47.91844 3475 ft 2 kts 356°
2026-05-04 20:23 -15.87316 -47.91846 3473 ft 4 kts 38°
2026-05-04 20:23 -15.87327 -47.91868 3474 ft 4 kts 85°
2026-05-04 20:23 -15.87328 -47.91879 3475 ft 1 kts 86°
2026-05-04 20:23 -15.87328 -47.91880 3475 ft 0 kts 86°
2026-05-04 20:26 -15.87327 -47.91870 3474 ft 6 kts 86°
2026-05-04 20:26 -15.87323 -47.91809 3476 ft 10 kts 86°
2026-05-04 20:26 -15.87318 -47.91737 3475 ft 10 kts 85°
2026-05-04 20:27 -15.87339 -47.91674 3471 ft 11 kts 155°
2026-05-04 20:27 -15.87423 -47.91662 3469 ft 12 kts 176°
2026-05-04 20:27 -15.87509 -47.91656 3467 ft 13 kts 176°
2026-05-04 20:27 -15.87607 -47.91649 3463 ft 15 kts 177°
2026-05-04 20:28 -15.87710 -47.91647 3459 ft 13 kts 198°
2026-05-04 20:28 -15.87740 -47.91723 3460 ft 12 kts 265°
2026-05-04 20:28 -15.87745 -47.91809 3461 ft 13 kts 266°
2026-05-04 20:28 -15.87751 -47.91899 3462 ft 12 kts 266°
2026-05-04 20:29 -15.87757 -47.91990 3462 ft 15 kts 266°
2026-05-04 20:29 -15.87762 -47.92065 3462 ft 16 kts 266°
2026-05-04 20:29 -15.87771 -47.92212 3466 ft 15 kts 266°
2026-05-04 20:29 -15.87778 -47.92317 3469 ft 14 kts 266°
2026-05-04 20:30 -15.87785 -47.92419 3470 ft 14 kts 266°
2026-05-04 20:30 -15.87791 -47.92515 3470 ft 13 kts 266°
2026-05-04 20:30 -15.87797 -47.92608 3471 ft 13 kts 266°
2026-05-04 20:30 -15.87802 -47.92699 3472 ft 12 kts 266°
2026-05-04 20:31 -15.87806 -47.92759 3473 ft 12 kts 266°
2026-05-04 20:31 -15.87812 -47.92845 3474 ft 12 kts 266°
2026-05-04 20:31 -15.87817 -47.92930 3474 ft 12 kts 266°
2026-05-04 20:31 -15.87823 -47.93022 3474 ft 15 kts 266°
2026-05-04 20:32 -15.87830 -47.93132 3477 ft 15 kts 266°
2026-05-04 20:32 -15.87837 -47.93237 3479 ft 14 kts 266°
2026-05-04 20:32 -15.87843 -47.93337 3485 ft 14 kts 266°
2026-05-04 20:32 -15.87849 -47.93433 3483 ft 13 kts 266°
2026-05-04 20:33 -15.87855 -47.93526 3489 ft 13 kts 266°
2026-05-04 20:33 -15.87861 -47.93616 3493 ft 12 kts 266°
2026-05-04 20:33 -15.87867 -47.93704 3499 ft 12 kts 266°
2026-05-04 20:33 -15.87872 -47.93790 3506 ft 12 kts 266°
2026-05-04 20:34 -15.87877 -47.93873 3508 ft 11 kts 266°
2026-05-04 20:34 -15.87886 -47.93953 3509 ft 11 kts 252°
2026-05-04 20:34 -15.87943 -47.93997 3509 ft 11 kts 183°
2026-05-04 20:34 -15.88017 -47.93992 3512 ft 11 kts 173°
2026-05-04 20:35 -15.88064 -47.93945 3512 ft 11 kts 91°
2026-05-04 20:35 -15.88055 -47.93818 3503 ft 39 kts 86°
2026-05-04 20:35 -15.88021 -47.93279 3480 ft 110 kts 86°
2026-05-04 20:35 -15.87957 -47.92281 3473 ft 165 kts 86°
2026-05-04 20:36 -15.87863 -47.90960 3790 ft 193 kts 87°
2026-05-04 20:36 -15.87892 -47.89604 4770 ft 185 kts 109°
2026-05-04 20:36 -15.88725 -47.88611 5441 ft 197 kts 153°
2026-05-04 20:36 -15.90144 -47.88250 5668 ft 223 kts 168°
2026-05-04 20:37 -15.91759 -47.87967 5885 ft 246 kts 167°
2026-05-04 20:37 -15.93521 -47.87627 6128 ft 270 kts 167°
2026-05-04 20:37 -15.95394 -47.87231 6800 ft 277 kts 166°
2026-05-04 20:37 -15.97287 -47.86804 7606 ft 280 kts 165°
2026-05-04 20:38 -15.99211 -47.86348 8309 ft 286 kts 165°
2026-05-04 20:38 -16.01159 -47.85872 8869 ft 287 kts 166°
2026-05-04 20:38 -16.03122 -47.85384 9144 ft 291 kts 166°
2026-05-04 20:38 -16.05096 -47.84891 9130 ft 292 kts 166°
2026-05-04 20:39 -16.07050 -47.84392 9130 ft 293 kts 163°
2026-05-04 20:39 -16.08974 -47.83654 9366 ft 298 kts 156°
2026-05-04 20:39 -16.10874 -47.82764 10151 ft 300 kts 155°
2026-05-04 20:39 -16.12796 -47.81830 10679 ft 313 kts 155°
2026-05-04 20:40 -16.14852 -47.80830 10837 ft 338 kts 155°
2026-05-04 20:40 -16.17058 -47.79766 10983 ft 360 kts 155°
2026-05-04 20:40 -16.19400 -47.78646 11140 ft 380 kts 155°
2026-05-04 20:40 -16.21844 -47.77486 11505 ft 390 kts 155°
2026-05-04 20:41 -16.24327 -47.76315 12108 ft 392 kts 155°
2026-05-04 20:41 -16.26819 -47.75143 12710 ft 395 kts 155°
2026-05-04 20:41 -16.29338 -47.73961 13207 ft 400 kts 155°
2026-05-04 20:41 -16.31884 -47.72766 13729 ft 403 kts 155°
2026-05-04 20:42 -16.34449 -47.71564 14223 ft 405 kts 155°
2026-05-04 20:42 -16.37025 -47.70357 14720 ft 407 kts 156°
2026-05-04 20:42 -16.39614 -47.69143 15186 ft 409 kts 156°
2026-05-04 20:42 -16.42222 -47.67920 15644 ft 412 kts 156°
2026-05-04 20:43 -16.44845 -47.66689 16101 ft 414 kts 156°
2026-05-04 20:43 -16.47480 -47.65452 16541 ft 417 kts 156°
2026-05-04 20:43 -16.50134 -47.64206 16974 ft 419 kts 156°
2026-05-04 20:43 -16.52803 -47.62952 17390 ft 422 kts 156°
2026-05-04 20:44 -16.55459 -47.61705 17813 ft 425 kts 156°
2026-05-04 20:44 -16.58165 -47.60433 18241 ft 427 kts 156°
2026-05-04 20:44 -16.60883 -47.59155 18598 ft 430 kts 156°
2026-05-04 20:44 -16.63616 -47.57870 18970 ft 432 kts 156°
2026-05-04 20:45 -16.66360 -47.56579 19349 ft 433 kts 157°
2026-05-04 20:45 -16.69113 -47.55283 19710 ft 435 kts 157°
2026-05-04 20:45 -16.71877 -47.53982 20073 ft 437 kts 157°
2026-05-04 20:45 -16.74657 -47.52674 20432 ft 438 kts 157°
2026-05-04 20:46 -16.77442 -47.51362 20773 ft 440 kts 157°
2026-05-04 20:46 -16.80244 -47.50042 21099 ft 443 kts 157°
2026-05-04 20:46 -16.83060 -47.48714 21436 ft 445 kts 157°
2026-05-04 20:46 -16.85883 -47.47383 21752 ft 447 kts 157°
2026-05-04 20:47 -16.88724 -47.46043 22068 ft 449 kts 157°
2026-05-04 20:47 -16.91542 -47.44714 22389 ft 450 kts 157°
2026-05-04 20:47 -16.94403 -47.43363 22703 ft 452 kts 157°
2026-05-04 20:47 -16.97276 -47.42007 23003 ft 454 kts 157°
2026-05-04 20:48 -17.00167 -47.40642 23300 ft 456 kts 157°
2026-05-04 20:48 -17.03064 -47.39273 23589 ft 458 kts 157°
2026-05-04 20:48 -17.05969 -47.37900 23842 ft 459 kts 158°
2026-05-04 20:48 -17.08884 -47.36522 24083 ft 461 kts 158°
2026-05-04 20:49 -17.11816 -47.35135 24304 ft 462 kts 158°
2026-05-04 20:49 -17.14758 -47.33743 24524 ft 464 kts 158°
2026-05-04 20:49 -17.17705 -47.32349 24755 ft 466 kts 158°
2026-05-04 20:49 -17.20659 -47.30950 24977 ft 467 kts 158°
2026-05-04 20:50 -17.23627 -47.29544 25197 ft 469 kts 158°
2026-05-04 20:50 -17.26603 -47.28134 25419 ft 470 kts 158°
2026-05-04 20:50 -17.29589 -47.26719 25619 ft 472 kts 158°
2026-05-04 20:50 -17.32586 -47.25298 25835 ft 473 kts 158°
2026-05-04 20:51 -17.35595 -47.23871 26038 ft 475 kts 158°
2026-05-04 20:51 -17.38605 -47.22442 26231 ft 477 kts 158°
2026-05-04 20:51 -17.41629 -47.21006 26430 ft 478 kts 159°
2026-05-04 20:51 -17.44626 -47.19583 26634 ft 479 kts 159°
2026-05-04 20:52 -17.47703 -47.18121 26828 ft 481 kts 159°
2026-05-04 20:52 -17.50753 -47.16673 27020 ft 482 kts 159°
2026-05-04 20:52 -17.53814 -47.15360 27192 ft 482 kts 162°
2026-05-04 20:52 -17.56973 -47.14175 27369 ft 482 kts 164°
2026-05-04 20:53 -17.60154 -47.13057 27640 ft 481 kts 165°
2026-05-04 20:53 -17.63371 -47.11943 27958 ft 480 kts 165°
2026-05-04 20:53 -17.66537 -47.10836 28267 ft 479 kts 165°
2026-05-04 20:53 -17.69693 -47.09715 28555 ft 479 kts 165°
2026-05-04 20:54 -17.72806 -47.08594 28829 ft 479 kts 165°
2026-05-04 20:54 -17.75955 -47.07448 29136 ft 479 kts 164°
2026-05-04 20:54 -17.79098 -47.06297 29466 ft 478 kts 165°
2026-05-04 20:54 -17.82232 -47.05146 29778 ft 477 kts 165°
2026-05-04 20:55 -17.85366 -47.03995 30067 ft 477 kts 165°
2026-05-04 20:55 -17.88499 -47.02844 30350 ft 477 kts 165°
2026-05-04 20:55 -17.91629 -47.01694 30648 ft 476 kts 165°
2026-05-04 20:55 -17.94748 -47.00548 30951 ft 475 kts 165°
2026-05-04 20:56 -17.97862 -46.99405 31230 ft 474 kts 165°
2026-05-04 20:56 -18.00983 -46.98259 31508 ft 474 kts 165°
2026-05-04 20:56 -18.04097 -46.97114 31806 ft 473 kts 165°
2026-05-04 20:56 -18.07200 -46.95974 32089 ft 472 kts 165°
2026-05-04 20:57 -18.13436 -46.93682 32093 ft 474 kts 165°
2026-05-04 20:57 -18.19603 -46.91411 32100 ft 471 kts 165°
2026-05-04 20:58 -18.25777 -46.89136 32097 ft 469 kts 165°
2026-05-04 20:58 -18.31938 -46.86865 32103 ft 468 kts 165°
2026-05-04 20:59 -18.38086 -46.84598 32106 ft 468 kts 165°
2026-05-04 20:59 -18.44242 -46.82325 32118 ft 469 kts 165°
2026-05-04 21:00 -18.50406 -46.80049 32117 ft 470 kts 165°
2026-05-04 21:00 -18.56591 -46.77762 32121 ft 471 kts 165°
2026-05-04 21:01 -18.62791 -46.75468 32113 ft 473 kts 165°
2026-05-04 21:01 -18.69009 -46.73165 32120 ft 473 kts 165°
2026-05-04 21:02 -18.75222 -46.70862 32121 ft 474 kts 165°
2026-05-04 21:02 -18.81440 -46.68555 32131 ft 474 kts 165°
2026-05-04 21:03 -18.87664 -46.66244 32121 ft 474 kts 165°
2026-05-04 21:03 -18.93886 -46.63932 32124 ft 474 kts 165°
2026-05-04 21:04 -19.00040 -46.61512 32127 ft 474 kts 164°
2026-05-04 21:04 -19.06200 -46.59002 32114 ft 474 kts 164°
2026-05-04 21:05 -19.12353 -46.56502 32127 ft 473 kts 164°
2026-05-04 21:05 -19.18508 -46.54016 32125 ft 473 kts 164°
2026-05-04 21:06 -19.24664 -46.51534 32128 ft 473 kts 164°
2026-05-04 21:06 -19.30812 -46.49054 32124 ft 472 kts 164°
2026-05-04 21:07 -19.36912 -46.46590 32139 ft 472 kts 164°
2026-05-04 21:07 -19.43054 -46.44107 32141 ft 473 kts 164°
2026-05-04 21:08 -19.49199 -46.41621 32146 ft 473 kts 165°
2026-05-04 21:08 -19.55359 -46.39126 32139 ft 473 kts 165°
2026-05-04 21:09 -19.61519 -46.36629 32147 ft 473 kts 165°
2026-05-04 21:09 -19.67633 -46.34149 32135 ft 473 kts 165°
2026-05-04 21:10 -19.73789 -46.31650 32145 ft 473 kts 165°
2026-05-04 21:10 -19.79936 -46.29155 32158 ft 473 kts 165°
2026-05-04 21:11 -19.86090 -46.26659 32142 ft 473 kts 165°
2026-05-04 21:11 -19.92231 -46.24165 32145 ft 472 kts 165°
2026-05-04 21:12 -19.98374 -46.21667 32143 ft 472 kts 165°
2026-05-04 21:12 -20.04514 -46.19168 32140 ft 472 kts 165°
2026-05-04 21:13 -20.10613 -46.16684 32136 ft 472 kts 165°
2026-05-04 21:13 -20.16751 -46.14182 32138 ft 472 kts 165°
2026-05-04 21:14 -20.22894 -46.11675 32137 ft 472 kts 165°
2026-05-04 21:14 -20.29028 -46.09170 32131 ft 472 kts 165°
2026-05-04 21:15 -20.35160 -46.06664 32139 ft 471 kts 165°
2026-05-04 21:15 -20.41288 -46.04157 32135 ft 472 kts 165°
2026-05-04 21:16 -20.47378 -46.01664 32132 ft 472 kts 165°
2026-05-04 21:16 -20.53511 -45.99151 32123 ft 472 kts 165°
2026-05-04 21:17 -20.58645 -45.97045 32127 ft 472 kts 165°
2026-05-04 21:17 -20.65775 -45.94118 32132 ft 472 kts 165°
2026-05-04 21:18 -20.70915 -45.92006 32131 ft 472 kts 165°
2026-05-04 21:18 -20.77013 -45.89477 32133 ft 472 kts 165°
2026-05-04 21:19 -20.83141 -45.86936 32141 ft 470 kts 168°
2026-05-04 21:19 -20.86277 -45.86115 32137 ft 460 kts 179°
2026-05-04 21:19 -20.89439 -45.85903 32126 ft 452 kts 187°
2026-05-04 21:20 -20.95547 -45.86969 32139 ft 441 kts 199°
2026-05-04 21:20 -21.01472 -45.88528 32136 ft 441 kts 199°
2026-05-04 21:21 -21.07449 -45.90071 32128 ft 442 kts 199°
2026-05-04 21:21 -21.13428 -45.91577 32131 ft 441 kts 199°
2026-05-04 21:22 -21.19416 -45.93074 32128 ft 441 kts 199°
2026-05-04 21:22 -21.25402 -45.94573 32137 ft 441 kts 199°
2026-05-04 21:23 -21.31377 -45.96071 32140 ft 441 kts 199°
2026-05-04 21:23 -21.37348 -45.97570 32131 ft 441 kts 199°
2026-05-04 21:24 -21.43323 -45.99073 32134 ft 440 kts 199°
2026-05-04 21:24 -21.49287 -46.00571 32138 ft 440 kts 199°
2026-05-04 21:25 -21.55214 -46.02053 32146 ft 440 kts 198°
2026-05-04 21:25 -21.61185 -46.03545 32146 ft 440 kts 198°
2026-05-04 21:26 -21.67152 -46.05037 32144 ft 439 kts 198°
2026-05-04 21:26 -21.73101 -46.06526 32161 ft 438 kts 198°
2026-05-04 21:27 -21.79037 -46.08014 32153 ft 438 kts 199°
2026-05-04 21:27 -21.84970 -46.09501 32162 ft 437 kts 199°
2026-05-04 21:28 -21.90893 -46.10989 32164 ft 437 kts 199°
2026-05-04 21:28 -21.93881 -46.11743 31555 ft 443 kts 198°
2026-05-04 21:28 -21.96870 -46.12495 30887 ft 440 kts 198°
2026-05-04 21:29 -21.99819 -46.13235 30114 ft 441 kts 198°
2026-05-04 21:29 -22.02814 -46.13987 29188 ft 442 kts 198°
2026-05-04 21:29 -22.05809 -46.14742 28281 ft 443 kts 198°
2026-05-04 21:29 -22.08817 -46.15500 27370 ft 444 kts 198°
2026-05-04 21:30 -22.11826 -46.16258 26651 ft 442 kts 198°
2026-05-04 21:30 -22.14809 -46.17009 26012 ft 438 kts 197°
2026-05-04 21:30 -22.17764 -46.17753 25371 ft 434 kts 197°
2026-05-04 21:30 -22.20703 -46.18495 24711 ft 432 kts 197°
2026-05-04 21:31 -22.26537 -46.19969 23352 ft 429 kts 197°
2026-05-04 21:31 -22.29436 -46.20701 22655 ft 426 kts 197°
2026-05-04 21:31 -22.32314 -46.21413 22018 ft 423 kts 195°
2026-05-04 21:32 -22.35197 -46.21948 21528 ft 418 kts 192°
2026-05-04 21:32 -22.38088 -46.22376 21027 ft 425 kts 191°
2026-05-04 21:32 -22.41042 -46.22792 20539 ft 430 kts 191°
2026-05-04 21:32 -22.44005 -46.23221 20020 ft 429 kts 191°
2026-05-04 21:33 -22.46946 -46.23661 19504 ft 424 kts 191°
2026-05-04 21:33 -22.49859 -46.24112 18994 ft 421 kts 192°
2026-05-04 21:33 -22.52756 -46.24566 18486 ft 419 kts 192°
2026-05-04 21:33 -22.55595 -46.25012 18068 ft 414 kts 191°
2026-05-04 21:34 -22.58420 -46.25451 17824 ft 409 kts 191°
2026-05-04 21:34 -22.61246 -46.25891 17580 ft 411 kts 191°
2026-05-04 21:34 -22.64090 -46.26333 17348 ft 412 kts 191°
2026-05-04 21:34 -22.66924 -46.26774 17101 ft 409 kts 191°
2026-05-04 21:35 -22.69733 -46.27210 16862 ft 407 kts 191°
2026-05-04 21:35 -22.72528 -46.27644 16636 ft 405 kts 191°
2026-05-04 21:35 -22.75308 -46.28077 16410 ft 403 kts 191°
2026-05-04 21:35 -22.78067 -46.28595 16167 ft 401 kts 198°
2026-05-04 21:36 -22.80609 -46.29817 15789 ft 401 kts 212°
2026-05-04 21:36 -22.83017 -46.31352 15402 ft 400 kts 212°
2026-05-04 21:36 -22.85399 -46.32874 15001 ft 394 kts 212°
2026-05-04 21:36 -22.87750 -46.34364 14619 ft 390 kts 211°
2026-05-04 21:37 -22.90101 -46.35842 14235 ft 390 kts 211°
2026-05-04 21:37 -22.92453 -46.37312 13826 ft 389 kts 211°
2026-05-04 21:37 -22.94795 -46.38769 13407 ft 388 kts 211°
2026-05-04 21:37 -22.97130 -46.40220 13015 ft 385 kts 211°
2026-05-04 21:38 -22.99406 -46.41633 12620 ft 374 kts 211°
2026-05-04 21:38 -23.01608 -46.42998 12248 ft 356 kts 211°
2026-05-04 21:38 -23.03709 -46.44303 11905 ft 340 kts 211°
2026-05-04 21:38 -23.05722 -46.45554 11570 ft 326 kts 211°
2026-05-04 21:39 -23.07664 -46.46762 11268 ft 318 kts 211°
2026-05-04 21:39 -23.09571 -46.47949 10974 ft 314 kts 211°
2026-05-04 21:39 -23.11436 -46.49110 10667 ft 304 kts 212°
2026-05-04 21:39 -23.13151 -46.50178 10391 ft 295 kts 212°
2026-05-04 21:40 -23.14905 -46.51271 10103 ft 286 kts 212°
2026-05-04 21:40 -23.16605 -46.52330 9813 ft 278 kts 212°
2026-05-04 21:40 -23.18267 -46.53365 9536 ft 274 kts 212°
2026-05-04 21:40 -23.19929 -46.54402 9153 ft 279 kts 212°
2026-05-04 21:41 -23.21603 -46.55478 8803 ft 277 kts 215°
2026-05-04 21:41 -23.23215 -46.56618 8534 ft 276 kts 216°
2026-05-04 21:41 -23.24821 -46.57773 8250 ft 276 kts 216°
2026-05-04 21:41 -23.26422 -46.58919 7980 ft 275 kts 216°
2026-05-04 21:42 -23.28018 -46.60059 7777 ft 274 kts 216°
2026-05-04 21:42 -23.29611 -46.61192 7578 ft 272 kts 216°
2026-05-04 21:42 -23.31194 -46.62318 7371 ft 271 kts 216°
2026-05-04 21:42 -23.32752 -46.63425 7156 ft 271 kts 216°
2026-05-04 21:43 -23.34326 -46.64544 6951 ft 269 kts 215°
2026-05-04 21:43 -23.35891 -46.65657 6757 ft 268 kts 216°
2026-05-04 21:43 -23.37444 -46.66760 6568 ft 266 kts 215°
2026-05-04 21:43 -23.38985 -46.67855 6343 ft 262 kts 215°
2026-05-04 21:44 -23.40527 -46.68824 6167 ft 249 kts 200°
2026-05-04 21:44 -23.42183 -46.68974 6053 ft 234 kts 171°
2026-05-04 21:44 -23.43667 -46.68330 5820 ft 227 kts 148°
2026-05-04 21:44 -23.44806 -46.67188 5709 ft 223 kts 128°
2026-05-04 21:45 -23.45710 -46.65811 5489 ft 225 kts 123°
2026-05-04 21:45 -23.46572 -46.64410 5244 ft 218 kts 123°
2026-05-04 21:45 -23.47218 -46.62987 5023 ft 203 kts 96°
2026-05-04 21:45 -23.47156 -46.61544 4837 ft 188 kts 79°
2026-05-04 21:46 -23.46922 -46.60162 4583 ft 183 kts 76°
2026-05-04 21:46 -23.46612 -46.58835 4367 ft 177 kts 73°
2026-05-04 21:46 -23.46282 -46.57588 4159 ft 166 kts 72°
2026-05-04 21:46 -23.45956 -46.56384 3928 ft 164 kts 72°
2026-05-04 21:47 -23.45636 -46.55202 3729 ft 160 kts 73°
2026-05-04 21:47 -23.45326 -46.54053 3514 ft 157 kts 73°
2026-05-04 21:47 -23.45014 -46.52899 3346 ft 160 kts 75°
2026-05-04 21:47 -23.44693 -46.51720 3094 ft 163 kts 75°
2026-05-04 21:48 -23.44370 -46.50530 2854 ft 162 kts 75°
2026-05-04 21:48 -23.44053 -46.49365 2589 ft 162 kts 76°
2026-05-04 21:48 -23.43747 -46.48217 2464 ft 147 kts 76°
2026-05-04 21:48 -23.43510 -46.47331 2464 ft 82 kts 73°
2026-05-04 21:49 -23.43418 -46.47023 2464 ft 23 kts 61°
2026-05-04 21:49 -23.43355 -46.46926 2462 ft 14 kts 50°
2026-05-04 21:49 -23.43287 -46.46850 2461 ft 14 kts 43°
2026-05-04 21:49 -23.43217 -46.46779 2461 ft 13 kts 43°
2026-05-04 21:50 -23.43150 -46.46719 2461 ft 10 kts 25°
2026-05-04 21:50 -23.43126 -46.46714 2461 ft 0 kts
2026-05-04 21:51 -23.43096 -46.46718 2465 ft 11 kts 347°
2026-05-04 21:52 -23.43016 -46.46743 2465 ft 12 kts 343°
2026-05-04 21:52 -23.42940 -46.46768 2465 ft 11 kts 343°
2026-05-04 21:52 -23.42868 -46.46791 2461 ft 11 kts 345°
2026-05-04 21:52 -23.42798 -46.46815 2460 ft 10 kts 334°
2026-05-04 21:53 -23.42778 -46.46883 2462 ft 10 kts 258°
2026-05-04 21:53 -23.42797 -46.46955 2464 ft 10 kts 253°
2026-05-04 21:53 -23.42816 -46.47026 2462 ft 10 kts 253°
2026-05-04 21:53 -23.42835 -46.47094 2460 ft 9 kts 254°
2026-05-04 21:54 -23.42857 -46.47176 2464 ft 13 kts 253°
2026-05-04 21:54 -23.42884 -46.47274 2462 ft 13 kts 254°
2026-05-04 21:54 -23.42910 -46.47370 2466 ft 14 kts 253°
2026-05-04 21:54 -23.42940 -46.47480 2463 ft 15 kts 253°
2026-05-04 21:55 -23.42969 -46.47589 2466 ft 15 kts 253°
2026-05-04 21:55 -23.42998 -46.47694 2466 ft 14 kts 253°
2026-05-04 21:55 -23.43016 -46.47780 2460 ft 10 kts 276°
2026-05-04 21:55 -23.42964 -46.47823 2460 ft 10 kts 346°
2026-05-04 21:56 -23.42899 -46.47837 2462 ft 9 kts 346°
2026-05-04 21:56 -23.42849 -46.47868 2460 ft 6 kts 331°
2026-05-04 21:56 -23.42831 -46.47891 2460 ft 4 kts 279°
2026-05-04 21:56 -23.42832 -46.47924 2460 ft 4 kts 266°
2026-05-04 21:57 -23.42833 -46.47941 2460 ft 0 kts 265°